Погода в Бугульме

Россия / Республика Татарстан     54°32′11″N   52°47′22″E
темп.,
°C
ветер,
м/с
пор.,
м/с
влажн.,
%
обл.,
%
осадки,
мм/ч
давл.,
гПа
погр.,
м
12 августа, пт
пт1200:00+13ссв33760 0.0 102329
03:00+12ссв11813 0.0 102310
06:00+15с117032 0.0 102472
09:00+20ссз2349100 0.0 10241053
12:00+22сз34445 0.0 10231483
15:00+23зсз454465 0.0 10221505
18:00+20зсз33628 0.0 102155
21:00+15сз11785 0.0 102211
13 августа, сб
сб1300:00+14з22775 0.0 102110
03:00+13з22805 0.0 102115
06:00+16з25715 0.0 1021156
09:00+22зсз45545 0.0 1021699
12:00+24сз45475 0.0 10201435
15:00+25сз55468 0.0 10191799
18:00+22ссз336340 0.0 101964
21:00+17с227282 0.0 102013
14 августа, вс
вс1400:00+16св3879100 0.0 1020158
03:00+15св3468100 0.0 102171
06:00+16св2664100 0.0 1022173
09:00+21всв464180 0.0 1021788
12:00+23всв4537100 0.0 10211333
15:00+24св45385 0.0 10201530
18:00+20всв345659 0.0 102065
21:00+16вюв116580 0.0 102111
15 августа, пн
пн1500:00+16в1165100 0.0 102111
03:00+15ссв1169100 0.0 102111
06:00+18св12670 0.0 102289
09:00+23св34541 0.0 1021997
12:00+25ссв344554 0.0 10212072
15:00+24ссв2450100 0.0 1021203
18:00+21всв2262100 0.0 102142
21:00+17св22750 0.0 102211
16 августа, вт
вт1600:00+15всв33730 0.0 102333
03:00+13всв22730 0.0 102419
06:00+15св26620 0.0 1025160
09:00+21св56450 0.0 1025920
12:00+23св45370 0.0 10251607
15:00+23св56350 0.0 10241630
18:00+19св36500 0.0 1025113
21:00+15св22620 0.0 102613